Temperature
25 24 24 24 24 23 23 24 24 24 24 25 26 25 24 23 22 21 20 19 19 18 18 17 17 16 16 15 15 14 14 14 13 13 13 13 13 13 12 12 12 12 12 12
24 24 23 23 23 23 23 23 23 24 24 26 25 24 23 22 21 21 20 20 19 19 18 18 17 17 16 16 15 15 14 14 14 13 13 13 13 13 13 13 13 12 12 12
24 24 23 23 24 24 24 24 24 24 25 26 25 24 24 23 22 21 21 20 20 19 19 18 18 17 16 16 15 15 14 14 14 14 14 13 13 13 13 13 13 13 13 12
23 23 22 25 25 24 24 24 24 24 25 25 25 24 23 22 22 22 21 21 20 20 19 19 18 17 17 16 16 15 15 14 14 14 14 14 14 13 13 13 13 13 13 13
23 23 23 24 24 23 23 24 25 25 25 24 23 22 23 22 22 22 22 21 20 20 19 19 18 17 17 16 16 15 15 15 14 14 14 14 14 14 13 13 13 13 13 13
22 22 22 24 24 23 23 24 25 24 24 24 22 24 25 23 22 22 21 21 20 20 19 19 18 17 17 16 16 16 15 15 15 15 15 14 14 14 14 14 14 13 13 13
22 22 23 25 22 22 23 24 24 23 23 23 23 24 23 22 22 21 21 21 21 20 19 19 18 18 17 17 16 16 16 15 15 15 15 14 14 14 14 14 14 13 13 13
22 22 23 23 22 23 24 23 22 22 22 22 22 22 21 21 21 21 21 21 21 20 19 19 18 18 17 17 16 16 16 16 15 15 15 14 14 14 14 14 13 13 13 13
22 23 23 21 22 21 21 21 21 21 21 20 20 21 21 21 21 21 21 21 20 20 19 19 18 18 17 17 16 16 16 16 15 15 15 14 14 14 13 13 13 13 12 12
21 22 22 21 20 20 20 20 20 20 20 20 20 20 20 20 20 20 20 20 20 20 19 19 18 18 17 17 17 16 16 15 15 15 14 14 14 13 13 12 12 12 12 12
20 21 21 21 20 19 19 19 19 19 19 19 19 20 20 20 20 20 20 20 20 20 19 19 18 18 17 17 16 16 15 15 15 14 14 13 13 13 13 13 12 12 12 11
19 20 19 19 19 18 18 18 18 18 18 19 19 19 19 19 20 20 20 20 20 19 19 19 18 18 17 17 16 16 15 15 15 14 14 13 13 13 12 12 12 12 11 11
16 16 16 16 16 16 16 16 17 17 17 18 18 18 19 19 19 20 20 19 19 19 19 18 18 17 17 17 16 16 15 15 14 14 13 13 12 12 11 11 11 11 11 11
14 14 15 15 14 14 15 15 15 16 16 17 17 18 18 18 19 19 19 19 19 19 18 18 18 17 17 17 16 15 15 15 14 13 13 12 11 11 10 10 10 10 10 10
12 12 13 13 13 13 13 14 14 15 15 16 16 17 17 18 18 19 19 19 18 18 18 18 17 17 17 16 16 15 15 14 14 13 12 12 11 10 10 9 9 9 8 8
11 11 11 11 12 12 12 12 13 14 14 14 15 16 16 17 17 17 18 18 18 18 17 17 17 17 16 16 15 15 14 14 13 12 12 11 10 10 9 9 8 8 8 7
9 10 10 10 10 11 11 11 11 12 13 13 14 15 15 16 16 16 17 17 17 17 17 16 16 16 16 15 15 14 14 13 12 12 11 10 10 9 9 8 8 7 7 7
8 8 8 9 9 9 10 10 10 11 11 12 13 13 14 15 15 16 16 16 15 15 15 15 15 15 15 15 14 13 13 12 11 11 10 10 9 9 8 8 7 7 6 6
8 8 8 8 8 8 9 9 10 10 11 11 12 12 13 14 14 14 14 14 14 14 14 14 14 14 14 14 13 13 12 11 11 10 9 9 8 8 7 7 7 6 6 5
7 7 7 7 8 8 8 9 9 9 10 10 11 11 12 13 13 13 13 13 14 14 14 14 13 13 13 13 12 12 11 10 10 9 9 8 8 7 7 6 6 6 5 5
7 7 7 7 7 8 8 8 8 8 9 9 10 10 11 11 11 11 12 12 12 12 13 13 13 12 12 12 11 10 10 9 9 8 8 7 7 7 6 6 5 5 5 4
7 7 7 7 7 7 8 8 8 8 8 9 9 9 9 10 10 10 11 11 11 12 12 12 12 12 11 11 10 9 9 8 8 8 7 7 6 6 6 5 5 5 4 4
6 6 6 6 7 7 7 7 7 8 8 8 8 8 8 9 9 9 9 10 10 11 11 11 11 11 10 9 9 8 8 8 7 7 7 6 6 6 5 5 5 4 4 3
6 6 6 6 6 6 7 7 7 7 7 7 7 7 8 8 8 8 8 9 10 10 10 10 10 10 9 8 8 7 7 7 6 6 6 6 5 5 5 4 4 4 3 3
6 6 6 6 6 6 6 6 6 6 7 7 6 7 7 7 7 7 8 8 8 8 9 9 8 8 8 7 7 7 6 6 6 6 5 5 5 5 4 4 3 3 3 2
5 5 5 5 5 5 6 6 6 6 6 6 6 6 6 6 7 7 7 7 7 7 7 7 7 7 6 6 6 6 6 6 5 5 5 5 4 4 4 3 3 3 3 2
5 5 5 5 5 5 5 5 5 5 6 6 6 6 6 6 6 6 6 6 6 6 6 6 6 6 6 6 5 5 5 5 5 5 4 4 4 4 3 3 3 3 2 2
Wind_Speed
7 6 6 9 10 11 14 14 15 15 16 16 14 11 10 9 9 10 11 12 12 12 12 11 11 10 9 9 8 8 7 6 5 4 3 2 2 2 2 2 2 3 3 3
10 7 8 12 13 14 16 16 17 18 19 16 13 10 10 11 11 12 13 14 13 13 13 13 12 12 11 10 9 9 8 7 6 5 4 3 3 2 2 2 2 2 3 2
11 7 8 12 12 13 12 13 13 15 15 11 10 10 11 11 12 13 14 14 14 14 14 13 13 12 12 11 10 9 9 7 7 6 5 4 4 3 3 3 2 3 3 2
10 10 12 7 2 6 11 13 14 15 15 12 11 10 10 10 12 13 13 13 14 13 13 13 12 12 12 11 10 10 9 8 7 7 6 5 5 4 4 3 3 3 3 3
8 11 12 10 6 5 7 10 9 12 13 11 7 7 9 9 12 13 12 12 12 13 13 13 13 13 13 12 11 10 9 9 8 7 6 6 5 5 4 4 4 4 3 3
8 10 10 6 0 2 4 7 4 5 7 6 4 6 5 2 7 10 9 9 10 11 12 13 13 13 13 13 12 11 10 9 8 7 6 6 5 5 4 4 4 4 4 4
12 12 9 6 1 5 6 4 7 6 7 5 6 7 6 3 4 7 9 10 11 12 12 13 13 14 14 13 12 10 9 8 7 7 6 5 4 4 4 4 4 4 4 4
9 10 8 1 4 4 6 8 8 9 8 8 9 9 6 4 4 6 8 10 11 12 12 12 13 14 14 13 11 10 9 8 8 7 5 4 4 3 3 3 4 4 4 3
7 6 3 0 4 6 8 10 10 11 11 10 10 10 8 6 6 7 9 10 11 12 12 12 13 14 14 12 11 10 9 9 8 7 5 4 4 3 3 3 3 3 3 3
9 11 10 9 9 9 10 11 12 13 13 11 11 11 9 8 7 8 9 11 11 13 13 13 13 13 12 12 11 11 10 9 8 7 6 4 2 2 1 1 2 2 2 2
16 16 15 12 10 12 13 14 15 15 13 12 12 12 11 9 9 9 9 10 12 14 14 14 14 13 12 12 12 12 11 9 8 7 6 5 4 3 1 3 2 1 1 1
17 15 15 17 17 16 16 17 17 16 16 14 12 13 12 11 10 10 10 11 13 14 14 15 14 14 13 12 12 12 11 10 8 7 6 6 6 6 9 7 10 9 7 5
16 17 18 19 18 17 17 18 17 16 16 16 14 12 12 11 10 10 11 13 15 15 15 15 14 14 13 13 13 12 11 10 8 7 7 7 7 6 6 7 9 10 10 9
13 14 16 15 16 16 17 17 16 16 15 14 14 13 11 11 10 11 13 14 14 14 14 15 15 14 14 13 13 12 11 9 9 7 7 7 6 6 5 5 5 5 8 10
12 13 14 15 15 15 15 16 16 16 16 15 13 12 11 11 11 12 11 11 12 13 14 15 15 15 14 14 14 13 11 9 8 8 7 7 6 6 5 5 5 5 5 7
12 12 12 13 14 15 16 16 16 16 16 16 14 13 13 12 11 10 10 11 13 15 16 16 16 15 15 14 14 11 10 11 10 9 8 8 7 7 6 6 6 5 4 4
11 12 14 14 15 16 16 16 16 17 17 17 16 14 13 11 10 9 10 12 13 14 14 15 15 15 15 15 14 11 10 11 12 9 8 8 8 7 7 6 6 5 5 4
9 11 12 14 15 16 17 17 16 17 17 17 16 14 12 11 11 10 10 10 11 12 13 13 14 15 15 15 13 11 11 11 10 9 9 8 8 7 7 7 7 7 6 6
11 12 13 14 15 15 16 17 17 17 17 16 15 13 12 11 11 10 10 11 13 14 13 13 16 16 15 15 13 11 12 12 11 10 9 10 9 8 7 7 7 6 6 5
12 13 14 15 15 15 15 16 16 16 15 15 14 13 11 10 9 9 11 12 11 10 12 15 17 15 15 15 14 12 12 13 12 11 10 10 9 9 8 7 7 6 6 5
13 14 15 15 15 15 15 16 15 15 15 14 12 12 11 9 8 8 10 10 9 10 13 16 14 13 13 14 14 12 12 12 12 11 10 10 9 9 8 8 7 6 5 5
14 14 15 15 15 15 14 14 14 14 14 13 12 10 9 7 7 8 9 7 8 12 12 12 12 13 15 16 12 11 12 12 11 10 10 9 9 9 8 8 7 6 5 5
14 14 14 14 14 15 15 13 13 12 12 12 11 9 8 6 5 6 6 5 8 14 12 11 14 19 20 13 11 11 12 11 10 10 9 9 9 8 8 8 7 6 5 5
14 14 14 14 13 14 14 13 12 10 10 10 9 8 6 4 4 4 4 7 11 13 9 12 19 21 18 11 11 11 11 10 10 9 9 9 8 8 8 7 7 6 5 5
14 14 14 14 13 11 12 13 12 11 9 7 8 7 5 3 3 3 4 8 12 12 10 15 21 19 13 10 10 10 10 10 9 9 9 9 8 8 7 7 6 6 5 5
13 12 12 12 12 10 10 9 9 9 8 7 7 5 4 3 2 2 3 7 11 11 10 11 13 13 11 10 10 10 9 10 10 9 9 9 9 8 7 7 8 6 5 5
13 12 10 10 10 9 9 8 8 9 8 7 7 5 4 3 1 2 4 6 8 9 9 10 11 10 10 10 10 10 9 9 9 9 9 8 8 8 8 8 7 6 5 5
Wind_Direction
277 282 267 261 251 229 235 255 267 275 276 278 280 272 257 241 224 212 208 205 202 200 199 196 196 197 197 196 194 193 197 207 216 221 223 239 253 271 292 311 322 337 342 349
268 263 259 261 258 249 247 255 262 270 275 277 277 271 253 236 222 216 213 209 205 203 199 198 197 196 194 195 193 194 201 207 208 217 220 231 244 256 272 284 299 315 322 333
277 277 271 265 259 248 246 242 250 262 273 281 272 261 250 239 226 221 217 209 204 203 200 200 198 196 193 194 190 195 202 205 204 209 216 227 232 239 251 259 273 286 295 305
277 277 265 284 298 256 257 261 255 261 271 275 274 276 264 245 233 225 217 209 204 202 198 197 194 191 190 187 191 197 202 203 203 208 214 219 224 235 248 260 263 270 284 291
262 268 273 279 266 235 248 275 276 266 270 274 283 276 256 235 228 226 216 208 201 198 193 191 188 186 186 189 193 198 202 204 202 204 210 217 224 233 243 252 257 260 268 276
247 261 269 280 286 186 251 269 344 309 296 286 256 260 275 249 221 217 208 197 190 186 187 187 184 183 188 192 195 199 199 202 200 202 208 219 230 241 242 244 253 259 259 265
247 257 265 287 165 178 243 319 6 346 329 295 255 275 317 292 236 211 195 186 180 179 184 185 179 181 191 194 197 194 190 192 194 199 208 219 230 236 240 243 249 253 257 256
243 250 259 132 162 219 318 344 339 332 328 307 285 296 304 272 233 205 190 183 180 180 181 179 178 184 192 194 189 181 180 185 190 194 199 203 212 226 234 238 244 249 255 260
248 261 345 329 272 307 324 317 325 325 321 309 293 285 285 269 240 213 199 188 185 184 179 178 182 189 193 186 179 177 179 183 185 184 185 193 201 209 222 234 253 265 267 276
266 269 288 297 293 299 307 307 312 315 313 304 290 284 277 263 243 219 205 194 187 184 184 184 185 190 193 180 176 180 183 183 183 183 179 174 171 190 205 239 254 266 283 293
274 281 292 287 300 314 316 311 309 311 308 299 290 282 274 262 244 225 209 198 192 193 192 189 184 186 185 179 179 184 184 181 182 178 171 158 136 84 90 62 27 353 346 340
272 288 292 294 305 312 312 310 309 308 305 300 288 280 274 264 249 231 216 203 199 199 195 191 185 183 180 180 183 186 185 181 178 172 165 158 143 112 66 70 70 61 45 32
280 291 291 292 299 306 307 306 306 303 299 297 291 281 272 264 250 233 221 211 205 201 196 190 185 183 178 178 183 188 185 178 173 172 168 167 163 156 138 108 89 74 67 63
292 296 289 295 301 306 308 309 306 302 298 294 291 285 273 262 249 232 223 217 210 201 194 188 184 182 177 176 179 183 180 171 169 168 170 171 170 169 164 160 144 112 86 76
301 298 293 298 302 306 310 311 310 307 306 302 297 286 273 260 248 237 227 214 203 197 192 186 184 179 173 174 176 175 171 167 166 162 164 165 163 161 157 153 143 133 125 108
310 308 308 308 309 312 314 314 311 308 307 304 298 289 276 264 255 243 222 204 198 197 192 187 184 176 171 171 169 168 164 153 156 159 160 160 160 159 156 153 149 143 135 123
318 318 320 318 316 316 314 312 309 307 306 303 298 293 283 268 253 237 220 209 206 201 192 188 180 170 170 170 166 162 157 156 158 160 162 161 160 159 156 154 149 140 124 93
316 313 314 314 315 315 313 312 310 308 305 302 300 293 280 262 247 234 219 206 200 194 189 183 172 166 168 169 166 161 159 160 165 161 158 160 158 157 155 151 147 141 133 129
322 319 316 314 313 311 310 310 310 309 306 304 299 289 276 261 250 235 211 198 193 190 185 175 162 165 167 165 159 159 160 159 160 158 155 151 156 156 156 154 151 149 147 147
315 314 314 314 315 314 311 311 311 310 309 305 299 290 279 265 248 225 206 204 201 192 175 167 166 167 163 161 160 161 160 161 159 158 157 160 161 159 158 157 156 156 157 157
317 318 318 317 316 315 315 315 314 313 314 310 301 292 283 269 244 218 205 205 197 177 167 163 165 163 160 158 161 160 161 161 162 162 162 164 163 163 163 163 164 165 165 165
314 316 316 316 315 315 317 317 315 315 315 314 308 300 290 271 242 222 213 204 178 164 164 167 165 157 156 155 161 160 161 162 163 164 165 167 167 168 170 169 171 171 172 174
308 310 312 313 312 312 313 316 319 320 318 314 310 303 290 274 246 222 210 187 170 171 170 167 158 154 155 158 160 161 163 164 165 167 168 170 171 172 172 173 174 175 179 181
303 305 307 308 309 309 312 318 321 321 321 318 313 307 296 278 256 236 216 167 166 166 168 156 154 156 158 160 161 163 165 166 167 169 169 170 171 172 172 174 176 180 185 190
296 298 301 304 305 306 308 313 316 319 320 321 319 315 305 287 268 236 192 170 164 163 159 159 159 160 162 161 164 165 166 167 167 167 169 170 172 174 175 177 182 187 193 200
293 293 292 292 294 297 301 305 308 311 314 316 316 314 309 303 267 212 177 167 164 162 159 160 163 164 165 163 164 165 165 164 165 170 172 173 176 178 180 184 189 195 200 206
288 288 288 289 291 294 296 299 302 305 309 309 308 307 302 292 255 194 173 165 162 163 163 163 165 167 165 165 166 168 170 171 172 174 175 178 180 183 186 190 193 196 199 205
Height
1481 1481 1483 1483 1483 1486 1486 1480 1481 1475 1472 1467 1464 1466 1468 1470 1472 1474 1476 1478 1479 1481 1484 1486 1488 1490 1492 1494 1495 1496 1497 1497 1498 1498 1498 1497 1497 1496 1496 1495 1494 1493 1492 1491
1481 1480 1482 1482 1479 1478 1480 1477 1475 1472 1469 1461 1461 1463 1464 1466 1467 1469 1471 1473 1475 1477 1480 1482 1484 1487 1489 1491 1492 1493 1495 1496 1496 1496 1496 1496 1496 1496 1495 1494 1494 1493 1492 1491
1481 1477 1481 1479 1469 1469 1470 1468 1468 1468 1461 1457 1458 1458 1459 1461 1462 1463 1465 1468 1470 1473 1475 1478 1481 1483 1486 1488 1490 1491 1493 1494 1494 1495 1495 1495 1495 1495 1494 1494 1493 1492 1491 1491
1480 1481 1488 1468 1462 1464 1465 1462 1460 1459 1456 1456 1456 1455 1456 1456 1457 1458 1461 1463 1466 1469 1471 1474 1477 1480 1483 1485 1487 1489 1490 1491 1492 1493 1493 1494 1494 1494 1493 1493 1492 1491 1491 1490
1480 1481 1474 1463 1460 1463 1464 1458 1453 1453 1452 1453 1454 1453 1451 1451 1452 1454 1456 1459 1462 1465 1468 1471 1474 1476 1479 1482 1484 1486 1487 1489 1490 1491 1491 1492 1492 1492 1492 1491 1491 1490 1489 1489
1479 1482 1479 1463 1458 1460 1462 1458 1451 1451 1451 1451 1452 1450 1446 1448 1448 1450 1452 1455 1458 1461 1464 1467 1470 1473 1476 1479 1481 1483 1484 1486 1487 1488 1489 1489 1490 1490 1490 1489 1489 1488 1488 1487
1475 1475 1465 1456 1459 1461 1465 1456 1453 1452 1451 1451 1450 1448 1447 1446 1446 1448 1449 1452 1454 1457 1460 1463 1466 1469 1472 1475 1478 1480 1481 1483 1484 1485 1486 1487 1487 1487 1487 1487 1486 1486 1485 1485
1470 1473 1467 1456 1458 1458 1455 1454 1453 1452 1451 1450 1448 1447 1446 1445 1445 1445 1447 1449 1451 1454 1457 1460 1462 1466 1469 1472 1474 1476 1478 1480 1481 1482 1483 1484 1484 1484 1484 1484 1484 1484 1483 1483
1462 1460 1457 1458 1458 1457 1456 1455 1453 1451 1450 1448 1446 1444 1444 1443 1443 1443 1444 1446 1448 1451 1453 1456 1459 1462 1466 1468 1471 1473 1475 1477 1478 1479 1480 1481 1481 1482 1482 1481 1481 1481 1481 1480
1461 1455 1456 1457 1456 1456 1455 1453 1452 1450 1448 1446 1443 1442 1441 1440 1440 1440 1441 1443 1445 1447 1449 1452 1455 1458 1462 1465 1467 1469 1472 1473 1475 1476 1477 1478 1478 1478 1479 1479 1479 1478 1478 1477
1459 1455 1455 1453 1454 1453 1452 1450 1448 1446 1444 1442 1440 1438 1437 1436 1436 1436 1437 1439 1440 1443 1445 1448 1451 1454 1457 1460 1463 1466 1468 1470 1471 1473 1474 1474 1475 1475 1475 1475 1476 1476 1475 1475
1457 1456 1455 1452 1452 1451 1449 1446 1444 1442 1439 1437 1436 1434 1433 1432 1432 1432 1433 1434 1436 1438 1440 1443 1446 1449 1452 1455 1458 1461 1464 1466 1467 1469 1470 1471 1471 1472 1472 1472 1472 1472 1472 1472
1459 1456 1454 1451 1449 1447 1445 1442 1439 1437 1435 1432 1430 1429 1427 1426 1426 1426 1427 1428 1430 1432 1435 1438 1441 1444 1447 1450 1454 1457 1459 1461 1463 1464 1466 1467 1468 1469 1469 1470 1470 1470 1470 1469
1456 1454 1450 1448 1446 1443 1440 1437 1434 1431 1429 1427 1424 1422 1421 1420 1419 1419 1420 1421 1424 1426 1429 1432 1435 1438 1442 1445 1448 1451 1454 1456 1458 1460 1462 1463 1465 1466 1467 1468 1468 1467 1467 1467
1452 1450 1448 1445 1442 1439 1436 1433 1429 1425 1423 1420 1418 1416 1414 1413 1412 1412 1414 1415 1417 1420 1422 1425 1429 1432 1436 1440 1443 1446 1449 1451 1454 1456 1457 1459 1461 1462 1464 1465 1465 1466 1466 1465
1449 1446 1444 1441 1437 1434 1431 1428 1424 1420 1418 1414 1412 1410 1408 1407 1406 1406 1407 1408 1410 1412 1415 1418 1422 1426 1430 1434 1438 1441 1444 1446 1449 1451 1454 1456 1457 1459 1460 1462 1463 1464 1464 1464
1446 1442 1439 1436 1433 1430 1427 1424 1420 1417 1413 1409 1406 1404 1402 1400 1399 1399 1400 1401 1404 1406 1409 1412 1416 1420 1424 1428 1432 1435 1438 1442 1445 1447 1450 1452 1454 1456 1457 1459 1460 1461 1462 1462
1444 1441 1438 1434 1430 1426 1422 1419 1415 1411 1407 1403 1400 1397 1395 1393 1392 1392 1393 1395 1397 1400 1403 1406 1410 1414 1418 1423 1427 1430 1433 1437 1440 1443 1446 1448 1450 1453 1455 1456 1458 1459 1460 1460
1439 1437 1433 1430 1426 1422 1418 1414 1409 1405 1401 1397 1394 1391 1388 1387 1386 1386 1387 1389 1390 1393 1396 1400 1404 1408 1412 1417 1421 1425 1429 1432 1436 1439 1442 1444 1447 1449 1452 1454 1455 1457 1458 1459
1435 1432 1428 1425 1421 1417 1413 1408 1404 1400 1395 1392 1388 1385 1382 1380 1380 1380 1381 1382 1384 1387 1390 1394 1399 1403 1407 1411 1415 1420 1424 1428 1431 1435 1438 1441 1444 1446 1449 1451 1452 1454 1455 1457
1431 1427 1424 1420 1416 1412 1408 1404 1399 1395 1390 1386 1383 1380 1377 1376 1375 1375 1375 1377 1380 1383 1386 1390 1394 1398 1402 1406 1411 1415 1419 1423 1427 1431 1434 1437 1441 1443 1446 1448 1450 1452 1453 1454
1427 1423 1419 1415 1411 1407 1403 1399 1395 1391 1386 1382 1378 1376 1373 1372 1371 1371 1371 1373 1375 1378 1381 1385 1389 1393 1398 1403 1407 1411 1416 1420 1424 1427 1431 1434 1437 1440 1442 1445 1447 1449 1450 1451
1423 1419 1415 1411 1407 1403 1399 1395 1391 1387 1382 1378 1375 1373 1371 1369 1368 1368 1368 1369 1371 1374 1378 1381 1385 1390 1395 1400 1404 1408 1412 1416 1420 1424 1427 1431 1434 1437 1439 1442 1444 1446 1447 1448
1418 1414 1411 1407 1403 1399 1395 1391 1387 1383 1379 1376 1373 1370 1368 1366 1365 1365 1366 1366 1368 1371 1375 1379 1383 1388 1392 1397 1401 1405 1410 1414 1417 1421 1425 1428 1431 1434 1436 1439 1441 1442 1444 1445
1412 1409 1406 1402 1399 1395 1391 1388 1384 1380 1376 1373 1370 1368 1366 1365 1364 1363 1363 1364 1366 1370 1373 1378 1382 1386 1391 1395 1399 1403 1407 1411 1415 1418 1422 1425 1428 1431 1433 1436 1438 1439 1441 1442
1407 1404 1400 1398 1395 1391 1388 1385 1381 1378 1374 1371 1369 1366 1364 1363 1362 1361 1362 1363 1365 1369 1372 1376 1381 1385 1389 1393 1397 1401 1405 1409 1412 1416 1419 1422 1425 1428 1430 1432 1434 1436 1437 1438
1401 1398 1395 1392 1390 1387 1384 1381 1378 1375 1372 1370 1367 1365 1363 1362 1361 1361 1361 1362 1365 1368 1372 1376 1380 1384 1388 1391 1395 1399 1403 1407 1410 1413 1417 1420 1422 1425 1427 1429 1431 1432 1433 1434